Header for Extended Forecast Station List Page

Search by: ID | Name | Date | Parm | Value | Avg | % Avg
Sort by: ID | Name | Date | Parm | Value | Avg | % Avg

Enter search or view all records.

Click on id for station plot
#IDNameDateParmValueAvg% Avg
0BULO3BULLY CREEK-BULLY CREEK DAM09-14-2020INFLOW (KAF)0116
1RIDI1WILLOW CREEK-RIRIE DAM09-14-2020INFLOW (KAF)6876
2MYKO3MCKAY CREEK-NEAR PILOT ROCK09-14-2020DISCHARGE (KAF)98117
3LWRI1LITTLE WOOD-LITTLE WOOD DAM09-14-2020INFLOW (KAF)111573
4BERO3MALHEUR-AGENCY VALLEY DAM09-14-2020INFLOW (KAF)111290
5WRMO3MALHEUR-WARM SPRINGS DAM09-14-2020INFLOW (KAF)1211103
6MAGI1BIG WOOD-MAGIC DAM09-14-2020INFLOW (KAF)132746
7TNAW1TEANAWAY-BELOW FORKS09-14-2020DISCHARGE (KAF)152561
8DEDI1DEADWOOD-NEAR LOWMAN09-14-2020INFLOW (KAF)161885
9SATI1ST MARIES-NEAR SANTA09-14-2020DISCHARGE (KAF)182379
10STRM8ST. REGIS-NEAR ST. REGIS09-14-2020DISCHARGE (KAF)193358
11HWRI1BIG LOST-AT HOWELL RANCH NEAR CHILLY09-14-2020DISCHARGE (KAF)192576
12ARDW1ENTIAT-NEAR ARDENVOIR09-14-2020DISCHARGE (KAF)202290
13HOTI1BRUNEAU-NEAR HOT SPRINGS09-14-2020DISCHARGE (KAF)202484
14GIBO3UMATILLA-NEAR GIBBON09-14-2020DISCHARGE (KAF)212293
15BUDW1BUMPING-BUMPING LAKE DAM09-14-2020INFLOW (KAF)233078
16HALI1BIG WOOD-AT HAILEY09-14-2020DISCHARGE (KAF)274461
17MACI1BIG LOST-MACKAY RESERVOIR NEAR MACKAY09-14-2020INFLOW (KAF)3210333
18KADW1KACHESS-KACHESS DAM09-14-2020INFLOW (KAF)343597
19PDTO3UMATILLA-AT PENDLETON09-14-2020DISCHARGE (KAF)414297
20WSRI1WEISER-NEAR WEISER09-14-2020DISCHARGE (KAF)425379
21EASW1YAKIMA-AT EASTON09-14-2020DISCHARGE (KAF)435874
22MONO3NF JOHN DAY-AT MONUMENT09-14-2020DISCHARGE (KAF)476078
23KEDW1YAKIMA-KEECHELUS LAKE09-14-2020INFLOW (KAF)4944110
24RILW1TIETON-RIMROCK LAKE NEAR RIMROCK09-14-2020INFLOW (KAF)526184
25PIHI1PORTNEUF-AT POCATELLO09-14-2020DISCHARGE (KAF)5252100
26BIGI1BOISE-AT GLENWOOD BRIDGE09-14-2020DISCHARGE (KAF)545794
27OWYO3OWYHEE-OWYHEE DAM09-14-2020INFLOW (KAF)616494
28TCHW1WALLA WALLA-NEAR TOUCHET09-14-2020DISCHARGE (KAF)6661109
29ARAI1SF BOISE-ANDERSON RANCH DAM09-14-2020INFLOW (KAF)677195
30RCCM8ROCK CREEK-NEAR CLINTON09-14-2020DISCHARGE (KAF)6954127
31DLGM8CLARK FORK-AT DEER LODGE09-14-2020DISCHARGE (KAF)7462118
32PRTI1PRIEST-NEAR PRIEST RIVER09-14-2020DISCHARGE (KAF)7921437
33CLFW1NACHES-NEAR CLIFFDEL09-14-2020DISCHARGE (KAF)799087
34CSDI1NF PAYETTE-CASCADE DAM09-14-2020INFLOW (KAF)848895
35WGCM8MF FLATHEAD-NEAR WEST GLACIER09-14-2020DISCHARGE (KAF)8618447
36PATW1METHOW-NEAR PATEROS09-14-2020DISCHARGE (KAF)8710286
37JLKW4SNAKE-JACKSON LAKE AT DAM09-14-2020INFLOW (KAF)8711377
38CLUW1CLE ELUM-CLE ELUM LAKE09-14-2020INFLOW (KAF)9389104
39UMAO3UMATILLA-NEAR UMATILLA09-14-2020DISCHARGE (KAF)9442225
40SERO3JOHN DAY-AT SERVICE CK09-14-2020DISCHARGE (KAF)9411781
41CHEI1FALL RIVER-NEAR CHESTER09-14-2020DISCHARGE (KAF)10310697
42LAUW1KETTLE-AT LAURIER09-14-2020DISCHARGE (KAF)10412782
43NACW1NACHES-NEAR NACHES09-14-2020DISCHARGE (KAF)11577150
44TEAI1TETON-NEAR ST. ANTHONY09-14-2020DISCHARGE (KAF)11712296
45UNDW1WHITE SALMON-NEAR UNDERWOOD09-14-2020DISCHARGE (KAF)12218865
46IPDI1HENRYS FORK-ISLAND PARK DAM09-14-2020INFLOW (KAF)133124107
47BONM8BLACKFOOT-NEAR BONNER09-14-2020DISCHARGE (KAF)13914596
48FCFM8NF FLATHEAD-NEAR COLUMBIA FALLS09-14-2020DISCHARGE (KAF)14121566
49DRMM8CLARK FORK-NR DRUMMOND09-14-2020DISCHARGE (KAF)154MM
50TRYO3GRANDE RONDE-TROY09-14-2020DISCHARGE (KAF)15923767
51HHWM8SF FLATHEAD-HUNGRY HORSE DAM09-14-2020INFLOW (KAF)17124071
52HODO3HOOD-NEAR TUCKER BRIDGE09-14-2020DISCHARGE (KAF)171166103
53BITM8BITTERROOT-NEAR MISSOULA09-14-2020DISCHARGE (KAF)18023577
54CHDW1CHELAN-LAKE CHELAN DAM09-14-2020INFLOW (KAF)182158115
55PITW1KLICKITAT-NEAR PITT09-14-2020DISCHARGE (KAF)18221684
56LUCI1BOISE-LUCKY PEAK DAM09-14-2020INFLOW (KAF)184MM
57PARI1BOISE-NEAR PARMA09-14-2020DISCHARGE (KAF)19122286
58UMTW1YAKIMA-AT UMTANUM09-14-2020DISCHARGE (KAF)21128175
59PESW1WENATCHEE-AT PESHASTIN09-14-2020DISCHARGE (KAF)25126694
60COEI1COEUR D ALENE-COEUR D ALENE LAKE09-14-2020INFLOW (KAF)25343658
61DWRI1NF CLEARWATER-DWORSHAK DAM09-14-2020INFLOW (KAF)27041665
62PARW1YAKIMA-NEAR PARKER09-14-2020DISCHARGE (KAF)28832788
63TONW1OKANOGAN-NEAR TONASKET09-14-2020DISCHARGE (KAF)289277105
64ANTI1HENRYS FORK-AT ST. ANTHONY09-14-2020DISCHARGE (KAF)340334102
65ABOM8CLARK FORK-ABOVE MISSOULA09-14-2020DISCHARGE (KAF)376363104
66ORFI1CLEARWATER-AT OROFINO09-14-2020DISCHARGE (KAF)39355571
67EMMI1PAYETTE-NEAR EMMETT09-14-2020DISCHARGE (KAF)402356113
68REXI1HENRYS FORK-AT REXBURG09-14-2020DISCHARGE (KAF)435424103
69SPOW1SPOKANE-AT SPOKANE09-14-2020DISCHARGE (KAF)438MM
70KIOW1YAKIMA-AT KIONA09-14-2020DISCHARGE (KAF)53458991
71JKSW4SNAKE-NEAR JACKSON09-14-2020DISCHARGE (KAF)553399139
72BELM8CLARK FORK-BELOW MISSOULA09-14-2020DISCHARGE (KAF)55560692
73ALPW4SNAKE-NEAR ALPINE09-14-2020DISCHARGE (KAF)614495124
74LLKW1SPOKANE-AT LONGLAKE09-14-2020INFLOW (KAF)61988570
75SRGM8CLARK FORK-AT ST REGIS09-14-2020DISCHARGE (KAF)68378088
76SNAI1SNAKE-AT BLACKFOOT09-14-2020DISCHARGE (KAF)725661110
77BFTI1SNAKE-NEAR BLACKFOOT09-14-2020DISCHARGE (KAF)744709105
78HEII1SNAKE-NEAR HEISE09-14-2020DISCHARGE (KAF)78081296
79CFMM8FLATHEAD-AT COLUMBIA FALLS09-14-2020DISCHARGE (KAF)863122570
80PLDI1SF SNAKE-PALISADES DAM09-14-2020INFLOW (KAF)893763117
81SIFI1SNAKE-AB EAGLE ROCK NR IDAHO FALLS09-14-2020DISCHARGE (KAF)898877102
82SHYI1SNAKE-NEAR SHELLEY09-14-2020DISCHARGE (KAF)901805112
83SPDI1CLEARWATER-AT SPALDING09-14-2020DISCHARGE (KAF)904133668
84LYDM8KOOTENAI-LIBBY DAM09-14-2020INFLOW (KAF)985107592
85KERM8FLATHEAD-SELI’Š KSANKA QLISPE’ DAM09-14-2020INFLOW (KAF)990149066
86WHBI1SALMON-AT WHITEBIRD09-14-2020DISCHARGE (KAF)1038110994
87MODO3DESCHUTES-AT MOODY NR BIGGS09-14-2020DISCHARGE (KAF)1075124886
88AFRI1SNAKE-AMERICAN FALLS RESERVOIR09-14-2020INFLOW (KAF)14131392101
89SWAI1SNAKE-BELOW SWAN FALLS09-14-2020DISCHARGE (KAF)1810243174
90NOXM8CLARK FORK-NOXON RAPIDS DAM09-14-2020INFLOW (KAF)2420328874
91LEOI1KOOTENAI-AT LEONIA09-14-2020DISCHARGE (KAF)26291755150
92CABI1CLARK FORK-CABINET GORGE DAM09-14-2020INFLOW (KAF)2652341978
93ALFW1PEND OREILLE-ALBENI FALLS DAM09-14-2020INFLOW (KAF)2824391672
94WEII1SNAKE-AT WEISER09-14-2020DISCHARGE (KAF)2862348182
95BRNI1SNAKE-BROWNLEE DAM09-14-2020INFLOW (KAF)3020354485
96ANAW1SNAKE-NEAR ANATONE09-14-2020DISCHARGE (KAF)3952525375
97LGDW1SNAKE-LOWER GRANITE DAM09-14-2020INFLOW (KAF)4856675172
98LGSW1SNAKE-LITTLE GOOSE DAM09-14-2020INFLOW (KAF)4856678872
99LMNW1SNAKE-LOWER MONUMENTAL DAM09-14-2020INFLOW (KAF)4879680672
100IHDW1SNAKE-ICE HARBOR DAM09-14-2020INFLOW (KAF)4879673772
101CHJW1COLUMBIA-CHIEF JOSEPH DAM09-14-2020INFLOW (KAF)179891972291
102CIBW1COLUMBIA-AT INTL BOUNDARY09-14-2020DISCHARGE (KAF)18130MM
103WELW1COLUMBIA-WELLS DAM09-14-2020INFLOW (KAF)183632003392
104RRHW1COLUMBIA-ROCKY REACH DAM09-14-2020INFLOW (KAF)187542053491
105GCDW1COLUMBIA-GRAND COULEE DAM09-14-2020INFLOW (KAF)1888417330109
106WANW1COLUMBIA-WANAPUM DAM09-14-2020INFLOW (KAF)1905418903101
107PRWW1COLUMBIA-PRIEST RAPIDS DAM09-14-2020INFLOW (KAF)190571919799
108MCDW1COLUMBIA-MCNARY DAM09-14-2020INFLOW (KAF)245572740990
109JDAO3COLUMBIA-JOHN DAY DAM09-14-2020INFLOW (KAF)254052805491
110TDAO3COLUMBIA-THE DALLES DAM09-14-2020INFLOW (KAF)259753052885
111BONO3COLUMBIA-BONNEVILLE DAM09-14-2020INFLOW (KAF)264493207882
112BFEI1KOOTENAI-AT BONNERS FERRY09-14-2020STAGE (FT)MMM
113HOPI1PEND OREILLE-PEND OREILLE LAKE NR HOPE09-14-2020LAKE ELEVATION (FT)MMM
114SJMI1ST JOE-AT ST MARIES09-14-2020STAGE (FT)MMM
115MILI1SNAKE-AT MILNER09-14-2020DISCHARGE (KAF)M372M